Time,TemperatureF,DewpointF,PressureIn,WindDirection,WindDirectionDegrees,WindSpeedMPH,WindSpeedGustMPH,Humidity,HourlyPrecipIn,Conditions,Clouds,dailyrainin,SoftwareType,DateUTC
2013-09-27 00:21:00,55.0,47.0,29.88,WSW,242,0.0,-999.0,75,-99.99,,,-99.99,,2013-09-27 07:21:00,
2013-09-27 00:43:00,54.0,46.0,29.88,WSW,243,0.0,-999.0,74,-99.99,,,-99.99,,2013-09-27 07:43:00,
2013-09-27 00:53:00,55.0,47.0,29.88,WSW,243,0.0,-999.0,73,-99.99,,,-99.99,,2013-09-27 07:53:00,
2013-09-27 01:11:00,55.0,46.0,29.88,WSW,243,0.0,-999.0,72,-99.99,,,-99.99,,2013-09-27 08:11:00,
2013-09-27 01:22:00,54.0,46.0,29.88,WSW,243,0.0,-999.0,74,-99.99,,,-99.99,,2013-09-27 08:22:00,
2013-09-27 01:42:00,53.0,46.0,29.88,WSW,243,0.0,-999.0,76,-99.99,,,-99.99,,2013-09-27 08:42:00,
2013-09-27 01:52:00,53.0,45.0,29.88,WSW,243,0.0,-999.0,75,-99.99,,,-99.99,,2013-09-27 08:52:00,
2013-09-27 02:11:00,53.0,45.0,29.88,WSW,242,0.0,-999.0,74,-99.99,,,-99.99,,2013-09-27 09:11:00,
2013-09-27 02:22:00,54.0,46.0,29.89,WSW,243,0.0,-999.0,73,-99.99,,,-99.99,,2013-09-27 09:22:00,
2013-09-27 02:53:00,54.0,45.0,29.89,WSW,242,0.0,-999.0,72,-99.99,,,-99.99,,2013-09-27 09:53:00,
2013-09-27 03:12:00,53.0,44.0,29.89,WSW,242,0.0,-999.0,71,-99.99,,,-99.99,,2013-09-27 10:12:00,
2013-09-27 03:23:00,52.0,43.0,29.88,WSW,242,0.0,-999.0,72,-99.99,,,-99.99,,2013-09-27 10:23:00,
2013-09-27 03:52:00,53.0,44.0,29.88,WSW,242,0.0,-999.0,72,-99.99,,,-99.99,,2013-09-27 10:52:00,
2013-09-27 04:11:00,53.0,45.0,29.88,WSW,243,0.0,-999.0,73,-99.99,,,-99.99,,2013-09-27 11:11:00,
2013-09-27 04:22:00,53.0,43.0,29.88,WSW,243,0.0,-999.0,70,-99.99,,,-99.99,,2013-09-27 11:22:00,
2013-09-27 04:52:00,54.0,40.0,29.89,WSW,243,0.0,-999.0,59,-99.99,,,-99.99,,2013-09-27 11:52:00,
2013-09-27 08:21:00,65.0,38.0,29.95,NNE,31,2.0,-999.0,37,-99.99,,,-99.99,,2013-09-27 15:21:00,
2013-09-27 08:54:00,67.0,38.0,29.96,NNE,26,3.0,-999.0,35,-99.99,,,-99.99,,2013-09-27 15:54:00,
2013-09-27 09:13:00,67.0,38.0,29.96,North,10,5.0,-999.0,34,-99.99,,,-99.99,,2013-09-27 16:13:00,
2013-09-27 09:24:00,68.0,38.0,29.97,NNE,24,5.0,-999.0,33,-99.99,,,-99.99,,2013-09-27 16:24:00,
2013-09-27 09:53:00,70.0,38.0,29.98,NNE,32,8.0,-999.0,31,-99.99,,,-99.99,,2013-09-27 16:53:00,
2013-09-27 10:12:00,71.0,38.0,29.98,North,9,7.0,-999.0,30,-99.99,,,-99.99,,2013-09-27 17:12:00,
2013-09-27 10:23:00,71.0,38.0,29.98,NE,53,6.0,-999.0,30,-99.99,,,-99.99,,2013-09-27 17:23:00,
2013-09-27 10:52:00,73.0,38.0,29.98,NNE,26,6.0,-999.0,28,-99.99,,,-99.99,,2013-09-27 17:52:00,
2013-09-27 11:13:00,74.0,38.0,29.98,NE,38,5.0,-999.0,27,-99.99,,,-99.99,,2013-09-27 18:13:00,
2013-09-27 11:21:00,75.0,38.0,29.97,NNE,17,5.0,-999.0,26,-99.99,,,-99.99,,2013-09-27 18:21:00,
2013-09-27 11:52:00,76.0,38.0,29.97,NNE,28,6.0,-999.0,25,-99.99,,,-99.99,,2013-09-27 18:52:00,
2013-09-27 12:12:00,76.0,37.0,29.97,ENE,63,6.0,-999.0,24,-99.99,,,-99.99,,2013-09-27 19:12:00,
2013-09-27 12:22:00,77.0,36.0,29.97,North,360,5.0,-999.0,23,-99.99,,,-99.99,,2013-09-27 19:22:00,
2013-09-27 12:53:00,79.0,37.0,29.96,NE,51,4.0,-999.0,22,-99.99,,,-99.99,,2013-09-27 19:53:00,
2013-09-27 13:12:00,79.0,37.0,29.96,NNE,13,6.0,-999.0,22,-99.99,,,-99.99,,2013-09-27 20:12:00,
2013-09-27 13:22:00,80.0,35.0,29.96,NNE,14,4.0,-999.0,20,-99.99,,,-99.99,,2013-09-27 20:22:00,
2013-09-27 13:52:00,81.0,35.0,29.95,NNE,29,3.0,-999.0,19,-99.99,,,-99.99,,2013-09-27 20:52:00,
2013-09-27 14:11:00,81.0,33.0,29.94,NNE,33,2.0,-999.0,18,-99.99,,,-99.99,,2013-09-27 21:11:00,
2013-09-27 14:21:00,81.0,35.0,29.93,North,5,2.0,-999.0,19,-99.99,,,-99.99,,2013-09-27 21:21:00,
2013-09-27 14:44:00,82.0,34.0,29.93,NNE,26,3.0,-999.0,18,-99.99,,,-99.99,,2013-09-27 21:44:00,
2013-09-27 14:54:00,82.0,34.0,29.93,North,10,3.0,-999.0,18,-99.99,,,-99.99,,2013-09-27 21:54:00,
2013-09-27 15:24:00,82.0,39.0,29.92,SW,225,1.0,-999.0,22,-99.99,,,-99.99,,2013-09-27 22:24:00,
2013-09-27 15:53:00,82.0,39.0,29.91,WSW,238,1.0,-999.0,22,-99.99,,,-99.99,,2013-09-27 22:53:00,
2013-09-27 17:12:00,78.0,35.0,29.92,WSW,251,2.0,-999.0,21,-99.99,,,-99.99,,2013-09-28 00:12:00,
2013-09-27 17:22:00,78.0,35.0,29.92,West,269,0.0,-999.0,21,-99.99,,,-99.99,,2013-09-28 00:22:00,
2013-09-27 17:42:00,76.0,34.0,29.93,SW,229,1.0,-999.0,22,-99.99,,,-99.99,,2013-09-28 00:42:00,
2013-09-27 17:52:00,75.0,36.0,29.93,WSW,254,1.0,-999.0,24,-99.99,,,-99.99,,2013-09-28 00:52:00,
2013-09-27 18:21:00,72.0,35.0,29.93,WSW,257,1.0,-999.0,26,-99.99,,,-99.99,,2013-09-28 01:21:00,
2013-09-27 18:42:00,71.0,34.0,29.93,SW,227,1.0,-999.0,26,-99.99,,,-99.99,,2013-09-28 01:42:00,
2013-09-27 18:52:00,70.0,34.0,29.94,WSW,243,1.0,-999.0,26,-99.99,,,-99.99,,2013-09-28 01:52:00,
2013-09-27 19:12:00,70.0,34.0,29.94,SW,236,1.0,-999.0,27,-99.99,,,-99.99,,2013-09-28 02:12:00,
2013-09-27 19:22:00,69.0,35.0,29.95,SW,234,1.0,-999.0,28,-99.99,,,-99.99,,2013-09-28 02:22:00,
2013-09-27 19:53:00,67.0,33.0,29.95,SW,234,0.0,-999.0,28,-99.99,,,-99.99,,2013-09-28 02:53:00,
2013-09-27 20:12:00,66.0,34.0,29.96,SW,234,0.0,-999.0,30,-99.99,,,-99.99,,2013-09-28 03:12:00,
2013-09-27 20:22:00,65.0,34.0,29.96,SW,234,0.0,-999.0,32,-99.99,,,-99.99,,2013-09-28 03:22:00,
2013-09-27 20:55:00,63.0,33.0,29.98,SW,234,0.0,-999.0,33,-99.99,,,-99.99,,2013-09-28 03:55:00,
2013-09-27 21:24:00,62.0,33.0,29.98,SW,234,0.0,-999.0,33,-99.99,,,-99.99,,2013-09-28 04:24:00,
2013-09-27 21:43:00,63.0,33.0,29.98,SW,234,0.0,-999.0,32,-99.99,,,-99.99,,2013-09-28 04:43:00,
2013-09-27 21:53:00,62.0,32.0,29.98,SW,234,0.0,-999.0,32,-99.99,,,-99.99,,2013-09-28 04:53:00,
2013-09-27 22:12:00,63.0,32.0,29.98,SW,234,0.0,-999.0,31,-99.99,,,-99.99,,2013-09-28 05:12:00,
2013-09-27 22:22:00,63.0,31.0,29.98,SW,234,0.0,-999.0,30,-99.99,,,-99.99,,2013-09-28 05:22:00,
2013-09-27 22:52:00,62.0,33.0,29.98,SW,234,0.0,-999.0,33,-99.99,,,-99.99,,2013-09-28 05:52:00,
2013-09-27 23:12:00,63.0,32.0,29.98,SW,234,0.0,-999.0,31,-99.99,,,-99.99,,2013-09-28 06:12:00,
2013-09-27 23:22:00,63.0,32.0,29.99,SW,234,0.0,-999.0,31,-99.99,,,-99.99,,2013-09-28 06:22:00,
2013-09-27 23:52:00,63.0,31.0,29.98,SW,234,0.0,-999.0,30,-99.99,,,-99.99,,2013-09-28 06:52:00,